This is the latest recevied weather packets stored in our database for station/object KD7CTY. If no packets are shown the sender has not sent any weather packets the latest 10 day(s).
| Time | Temp. | Humidity | Pressure | Rain* | Wind** | Luminosity | Snow |
|---|---|---|---|---|---|---|---|
| 1777166204 | 17.22° C | 24% | 1008.2 hPa | 0 mm | - | 74 W/m² | - |
| 1777165902 | 16.67° C | 25% | 1008.1 hPa | 0 mm | - | 64 W/m² | - |
| 1777165600 | 16.67° C | 31% | 1008.1 hPa | 0 mm | - | 67 W/m² | - |
| 1777165296 | 16.67° C | 26% | 1008.3 hPa | 0 mm | - | 65 W/m² | - |
| 1777164992 | 17.22° C | 24% | 1008.4 hPa | 0 mm | - | 63 W/m² | - |
| 1777164691 | 18.33° C | 23% | 1008.4 hPa | 0 mm | - | 71 W/m² | - |
| 1777164390 | 18.33° C | 22% | 1008.6 hPa | 0 mm | - | 71 W/m² | - |
| 1777164085 | 18.89° C | 22% | 1008.2 hPa | 0 mm | - | 356 W/m² | - |
| 1777163784 | 18.89° C | 25% | 1008.4 hPa | 0 mm | - | 371 W/m² | - |
| 1777163479 | 18.89° C | 25% | 1008.4 hPa | 0 mm | - | 265 W/m² | - |
| 1777163175 | 19.44° C | 24% | 1008.3 hPa | 0 mm | - | 391 W/m² | - |
| 1777162870 | 18.89° C | 23% | 1008.6 hPa | 0 mm | - | 410 W/m² | - |
| 1777162566 | 18.89° C | 22% | 1008.5 hPa | 0 mm | - | 419 W/m² | - |
| 1777162261 | 18.89° C | 24% | 1008.6 hPa | 0 mm | - | 431 W/m² | - |
| 1777161956 | 18.89° C | 22% | 1008.8 hPa | 0 mm | - | 436 W/m² | - |
| 1777161651 | 18.33° C | 28% | 1008.7 hPa | 0 mm | - | 447 W/m² | - |
| 1777161349 | 18.89° C | 23% | 1008.8 hPa | 0 mm | - | 461 W/m² | - |
| 1777161044 | 18.89° C | 23% | 1008.8 hPa | 0 mm | - | 413 W/m² | - |
| 1777160741 | 18.89° C | 23% | 1009 hPa | 0 mm | - | 515 W/m² | - |
| 1777160435 | 18.89° C | 24% | 1009.1 hPa | 0 mm | - | 522 W/m² | - |
| 1777160132 | 18.89° C | 23% | 1009.1 hPa | 0 mm | - | 524 W/m² | - |
| 1777159827 | 18.89° C | 23% | 1009 hPa | 0 mm | - | 396 W/m² | - |
| 1777159524 | 18.89° C | 24% | 1009 hPa | 0 mm | - | 567 W/m² | - |
| 1777159221 | 18.89° C | 24% | 1009 hPa | 0 mm | - | 563 W/m² | - |
| 1777158917 | 18.33° C | 27% | 1009.3 hPa | 0 mm | - | 584 W/m² | - |
* Rain latest hour (hover to see other rain measurements)
** Current wind speed in m/s (hover to see current wind gust speed)